TURKSAT 4B

Last updated on Wed Sep 09 2026 00:03:01 GMT+0000 (Coordinated Universal Time)

1 40984U 15060A 26251.45495987 .00000094 00000+0 00000+0 0 9995 2 40984 0.0363 268.3849 0002220 277.6769 15.2395 1.00273002 39933
UTC large
Height (km)
Speed (km/s)
/
Latitude / Longitude
Inclination (degrees)
Orbital Period (minutes)
Azimuth
Elevation
Range (km)
Doppler Factor

Next 0 passes for location: London (51.5072 / 0.1276)

No passes found over London.
TURKSAT 4B